Location: Peebles
(55.6412°N, 3.1714°W)
Time: 14:59:04
(UTC+01:00)

deb Agena D - Pass Details

Date: 22 September 2024
Orbit: 793 x 976 km, 99.8° (Epoch: 03 October)

Event Time Altitude Azimuth Distance (km) Brightness Sun altitude
Rises 05:36:58 0° 15° (NNE) 3,444 9.9 -12.1°
Reaches altitude 10° 05:39:47 10° 1° (N) 2,535 8.9 -11.8°
Maximum altitude 05:44:01 23° 312° (NW) 1,841 7.7 -11.2°
Enters shadow 05:47:40 13° 269° (W) 2,418 8.0 -10.7°
